| time (UTC) | temp F | wind direction | speed MPH | gust MPH | rain 1hr in | rain 24hr in | rain mn in | humidity % | barometer mb |
| 20260509122541 | 66 | 199 | 0.0 | 1.0 | 0.00 | 0.00 | 0.00 | 19 | 1012.4 |
| 20260509122038 | 66 | 299 | 0.0 | 2.0 | 0.00 | 0.00 | 0.00 | 19 | 1012.3 |
| 20260509121534 | 68 | 252 | 2.0 | 4.0 | 0.00 | 0.00 | 0.00 | 17 | 1012.1 |
| 20260509121032 | 68 | 279 | 2.0 | 2.0 | 0.00 | 0.00 | 0.00 | 17 | 1012.0 |
| 20260509120531 | 69 | 304 | 2.0 | 2.0 | 0.00 | 0.00 | 0.00 | 16 | 1012.2 |
| 20260509120029 | 69 | 139 | 0.0 | 2.0 | 0.00 | 0.00 | 0.00 | 17 | 1012.0 |
| 20260509115525 | 69 | 215 | 1.0 | 2.0 | 0.00 | 0.00 | 0.00 | 17 | 1012.0 |
| 20260509115023 | 67 | 188 | 1.0 | 2.0 | 0.00 | 0.00 | 0.00 | 18 | 1012.0 |
| 20260509114521 | 68 | 240 | 1.0 | 3.0 | 0.00 | 0.00 | 0.00 | 18 | 1012.0 |
| 20260509114020 | 68 | 194 | 0.0 | 2.0 | 0.00 | 0.00 | 0.00 | 19 | 1011.8 |
| 20260509113517 | 66 | 221 | 0.0 | 2.0 | 0.00 | 0.00 | 0.00 | 20 | 1012.2 |
| 20260509113015 | 66 | 258 | 0.0 | 2.0 | 0.00 | 0.00 | 0.00 | 20 | 1012.2 |
| 20260509112511 | 67 | 202 | 0.0 | 2.0 | 0.00 | 0.00 | 0.00 | 21 | 1012.1 |
| 20260509112008 | 69 | 218 | 0.0 | 2.0 | 0.00 | 0.00 | 0.00 | 22 | 1012.0 |
| 20260509111505 | 68 | 210 | 1.0 | 2.0 | 0.00 | 0.00 | 0.00 | 21 | 1012.1 |
| 20260509111002 | 68 | 197 | 0.0 | 2.0 | 0.00 | 0.00 | 0.00 | 20 | 1012.1 |
| 20260509110459 | 68 | 312 | 2.0 | 2.0 | 0.00 | 0.00 | 0.00 | 20 | 1012.2 |
| 20260509105956 | 66 | 193 | 0.0 | 2.0 | 0.00 | 0.00 | 0.00 | 21 | 1012.1 |
| 20260509105455 | 66 | 246 | 2.0 | 3.0 | 0.00 | 0.00 | 0.00 | 21 | 1012.1 |
| 20260509104951 | 66 | 226 | 2.0 | 4.0 | 0.00 | 0.00 | 0.00 | 21 | 1012.1 |
| 20260509104448 | 67 | 305 | 0.0 | 2.0 | 0.00 | 0.00 | 0.00 | 20 | 1012.2 |
| 20260509103946 | 68 | 218 | 0.0 | 2.0 | 0.00 | 0.00 | 0.00 | 19 | 1012.1 |
| 20260509103443 | 68 | 338 | 0.0 | 4.0 | 0.00 | 0.00 | 0.00 | 19 | 1012.3 |
| 20260509102941 | 68 | 157 | 2.0 | 2.0 | 0.00 | 0.00 | 0.00 | 18 | 1012.1 |
| 20260509102438 | 67 | 229 | 2.0 | 4.0 | 0.00 | 0.00 | 0.00 | 19 | 1012.2 |
| 20260509101934 | 68 | 269 | 0.0 | 2.0 | 0.00 | 0.00 | 0.00 | 20 | 1012.3 |
| 20260509101431 | 68 | 331 | 0.0 | 2.0 | 0.00 | 0.00 | 0.00 | 20 | 1012.2 |
| 20260509100928 | 67 | 196 | 1.0 | 2.0 | 0.00 | 0.00 | 0.00 | 20 | 1011.8 |
| 20260509100425 | 67 | 263 | 1.0 | 2.0 | 0.00 | 0.00 | 0.00 | 20 | 1012.4 |
| 20260509095922 | 67 | 243 | 0.0 | 2.0 | 0.00 | 0.00 | 0.00 | 20 | 1012.3 |
| 20260509095419 | 67 | 245 | 1.0 | 2.0 | 0.00 | 0.00 | 0.00 | 20 | 1012.4 |
| 20260509094916 | 68 | 235 | 2.0 | 2.0 | 0.00 | 0.00 | 0.00 | 21 | 1012.4 |
| 20260509094412 | 69 | 269 | 0.0 | 0.0 | 0.00 | 0.00 | 0.00 | 24 | 1012.4 |
| 20260509093910 | 69 | 196 | 0.0 | 2.0 | 0.00 | 0.00 | 0.00 | 25 | 1012.4 |
| 20260509093407 | 69 | 208 | 0.0 | 2.0 | 0.00 | 0.00 | 0.00 | 26 | 1012.4 |
| 20260509092906 | 68 | 185 | 1.0 | 2.0 | 0.00 | 0.00 | 0.00 | 26 | 1012.4 |
| 20260509092403 | 68 | 177 | 0.0 | 3.0 | 0.00 | 0.00 | 0.00 | 24 | 1012.5 |
| 20260509091901 | 68 | 293 | 1.0 | 2.0 | 0.00 | 0.00 | 0.00 | 23 | 1012.5 |
| 20260509091358 | 69 | 229 | 0.0 | 2.0 | 0.00 | 0.00 | 0.00 | 21 | 1012.6 |
| 20260509090855 | 70 | 233 | 0.0 | 2.0 | 0.00 | 0.00 | 0.00 | 20 | 1012.4 |
| 20260509090352 | 71 | 18 | 2.0 | 3.0 | 0.00 | 0.00 | 0.00 | 19 | 1012.9 |
| 20260509085850 | 72 | 66 | 0.0 | 1.0 | 0.00 | 0.00 | 0.00 | 18 | 1012.7 |
| 20260509085347 | 72 | 284 | 2.0 | 4.0 | 0.00 | 0.00 | 0.00 | 17 | 1012.5 |
| 20260509084843 | 72 | 226 | 0.0 | 2.0 | 0.00 | 0.00 | 0.00 | 17 | 1012.6 |
| 20260509084340 | 73 | 222 | 0.0 | 2.0 | 0.00 | 0.00 | 0.00 | 19 | 1012.7 |
| 20260509083838 | 72 | 147 | 1.0 | 2.0 | 0.00 | 0.00 | 0.00 | 19 | 1012.6 |
| 20260509083334 | 72 | 208 | 0.0 | 2.0 | 0.00 | 0.00 | 0.00 | 18 | 1012.5 |
| 20260509082831 | 73 | 176 | 0.0 | 2.0 | 0.00 | 0.00 | 0.00 | 18 | 1012.7 |
| 20260509082327 | 73 | 133 | 0.0 | 3.0 | 0.00 | 0.00 | 0.00 | 17 | 1012.8 |
| 20260509081825 | 72 | 201 | 0.0 | 2.0 | 0.00 | 0.00 | 0.00 | 17 | 1012.9 |
| 20260509081322 | 72 | 117 | 0.0 | 1.0 | 0.00 | 0.00 | 0.00 | 20 | 1012.7 |
| 20260509080820 | 72 | 244 | 1.0 | 2.0 | 0.00 | 0.00 | 0.00 | 19 | 1012.9 |
| 20260509080318 | 72 | 196 | 1.0 | 2.0 | 0.00 | 0.00 | 0.00 | 19 | 1013.0 |
| 20260509075816 | 71 | 174 | 1.0 | 2.0 | 0.00 | 0.00 | 0.00 | 20 | 1012.8 |
| 20260509075313 | 71 | 149 | 0.0 | 2.0 | 0.00 | 0.00 | 0.00 | 20 | 1013.0 |
| 20260509074809 | 72 | 242 | 0.0 | 1.0 | 0.00 | 0.00 | 0.00 | 21 | 1013.0 |
| 20260509074307 | 73 | 255 | 2.0 | 3.0 | 0.00 | 0.00 | 0.00 | 20 | 1013.0 |
| 20260509073803 | 74 | 298 | 1.0 | 1.0 | 0.00 | 0.00 | 0.00 | 21 | 1013.1 |
| 20260509073300 | 74 | 184 | 0.0 | 2.0 | 0.00 | 0.00 | 0.00 | 23 | 1013.0 |
| 20260509072756 | 74 | 227 | 2.0 | 2.0 | 0.00 | 0.00 | 0.00 | 23 | 1012.9 |
| 20260509072253 | 75 | 215 | 1.0 | 3.0 | 0.00 | 0.00 | 0.00 | 24 | 1013.1 |
| 20260509071750 | 74 | 206 | 2.0 | 2.0 | 0.00 | 0.00 | 0.00 | 27 | 1013.1 |
| 20260509071247 | 75 | 194 | 2.0 | 2.0 | 0.00 | 0.00 | 0.00 | 28 | 1013.3 |
| 20260509070744 | 75 | 211 | 1.0 | 2.0 | 0.00 | 0.00 | 0.00 | 23 | 1013.1 |
| 20260509070240 | 74 | 193 | 1.0 | 2.0 | 0.00 | 0.00 | 0.00 | 21 | 1013.2 |
| 20260509065737 | 73 | 213 | 2.0 | 2.0 | 0.00 | 0.00 | 0.00 | 21 | 1013.2 |
| 20260509065233 | 73 | 269 | 0.0 | 2.0 | 0.00 | 0.00 | 0.00 | 19 | 1013.2 |
| 20260509064729 | 75 | 218 | 2.0 | 2.0 | 0.00 | 0.00 | 0.00 | 19 | 1013.2 |
| 20260509064227 | 76 | 124 | 0.0 | 2.0 | 0.00 | 0.00 | 0.00 | 20 | 1013.3 |
| 20260509063724 | 77 | 230 | 0.0 | 1.0 | 0.00 | 0.00 | 0.00 | 21 | 1013.2 |
| 20260509063220 | 76 | 150 | 0.0 | 2.0 | 0.00 | 0.00 | 0.00 | 21 | 1013.1 |
| 20260509062718 | 77 | 235 | 0.0 | 2.0 | 0.00 | 0.00 | 0.00 | 20 | 1013.3 |
| 20260509062215 | 77 | 135 | 0.0 | 1.0 | 0.00 | 0.00 | 0.00 | 20 | 1013.2 |
| 20260509061712 | 77 | 194 | 3.0 | 3.0 | 0.00 | 0.00 | 0.00 | 17 | 1013.3 |
| 20260509061210 | 78 | 141 | 2.0 | 2.0 | 0.00 | 0.00 | 0.00 | 16 | 1013.4 |
| 20260509060707 | 78 | 98 | 1.0 | 3.0 | 0.00 | 0.00 | 0.00 | 16 | 1013.4 |
| 20260509060203 | 78 | 197 | 0.0 | 2.0 | 0.00 | 0.00 | 0.00 | 17 | 1013.3 |
| 20260509055659 | 78 | 217 | 0.0 | 2.0 | 0.00 | 0.00 | 0.00 | 17 | 1013.4 |
| 20260509055155 | 78 | 223 | 2.0 | 3.0 | 0.00 | 0.00 | 0.00 | 17 | 1013.4 |
| 20260509054651 | 79 | 232 | 0.0 | 3.0 | 0.00 | 0.00 | 0.00 | 16 | 1013.7 |
| 20260509054149 | 79 | 240 | 1.0 | 4.0 | 0.00 | 0.00 | 0.00 | 16 | 1013.5 |
| 20260509053647 | 77 | 210 | 0.0 | 2.0 | 0.00 | 0.00 | 0.00 | 17 | 1013.4 |
| 20260509053144 | 77 | 248 | 0.0 | 2.0 | 0.00 | 0.00 | 0.00 | 16 | 1013.6 |
| 20260509052642 | 79 | 174 | 1.0 | 3.0 | 0.00 | 0.00 | 0.00 | 16 | 1013.6 |
| 20260509052139 | 78 | 228 | 1.0 | 2.0 | 0.00 | 0.00 | 0.00 | 16 | 1013.6 |
| 20260509051637 | 77 | 227 | 1.0 | 2.0 | 0.00 | 0.00 | 0.00 | 16 | 1013.7 |
| 20260509051134 | 79 | 231 | 0.0 | 2.0 | 0.00 | 0.00 | 0.00 | 16 | 1013.8 |
| 20260509050631 | 79 | 190 | 0.0 | 2.0 | 0.00 | 0.00 | 0.00 | 16 | 1013.5 |
| 20260509050127 | 79 | 73 | 0.0 | 4.0 | 0.00 | 0.00 | 0.00 | 15 | 1013.6 |
| 20260509045625 | 80 | 141 | 0.0 | 2.0 | 0.00 | 0.00 | 0.00 | 15 | 1013.5 |
| 20260509045121 | 82 | 180 | 1.0 | 2.0 | 0.00 | 0.00 | 0.00 | 15 | 1013.5 |
| 20260509044619 | 82 | 180 | 0.0 | 2.0 | 0.00 | 0.00 | 0.00 | 15 | 1013.4 |
| 20260509044116 | 83 | 174 | 1.0 | 2.0 | 0.00 | 0.00 | 0.00 | 15 | 1013.5 |
| 20260509043612 | 84 | 137 | 2.0 | 3.0 | 0.00 | 0.00 | 0.00 | 15 | 1013.5 |
| 20260509043108 | 84 | 162 | 3.0 | 4.0 | 0.00 | 0.00 | 0.00 | 15 | 1013.4 |
| 20260509042605 | 85 | 62 | 0.0 | 3.0 | 0.00 | 0.00 | 0.00 | 15 | 1013.3 |
| 20260509042100 | 84 | 154 | 2.0 | 2.0 | 0.00 | 0.00 | 0.00 | 15 | 1013.3 |
| 20260509041558 | 84 | 88 | 1.0 | 3.0 | 0.00 | 0.00 | 0.00 | 15 | 1013.3 |
| 20260509041055 | 85 | 85 | 1.0 | 3.0 | 0.00 | 0.00 | 0.00 | 15 | 1013.2 |
| 20260509040553 | 83 | 134 | 1.0 | 2.0 | 0.00 | 0.00 | 0.00 | 16 | 1013.1 |
| 20260509040050 | 84 | 109 | 2.0 | 2.0 | 0.00 | 0.00 | 0.00 | 15 | 1013.1 |
| 20260509035547 | 85 | 77 | 0.0 | 3.0 | 0.00 | 0.00 | 0.00 | 15 | 1013.1 |
| 20260509035043 | 85 | 94 | 1.0 | 2.0 | 0.00 | 0.00 | 0.00 | 15 | 1013.1 |
| 20260509034542 | 86 | 180 | 1.0 | 3.0 | 0.00 | 0.00 | 0.00 | 14 | 1013.0 |
| 20260509034038 | 87 | 76 | 2.0 | 2.0 | 0.00 | 0.00 | 0.00 | 14 | 1012.8 |
| 20260509033536 | 87 | 109 | 2.0 | 3.0 | 0.00 | 0.00 | 0.00 | 13 | 1012.9 |
| 20260509033032 | 88 | 163 | 1.0 | 3.0 | 0.00 | 0.00 | 0.00 | 13 | 1012.9 |
| 20260509032529 | 89 | 155 | 2.0 | 4.0 | 0.00 | 0.00 | 0.00 | 12 | 1012.8 |
| 20260509032027 | 91 | 182 | 1.0 | 6.0 | 0.00 | 0.00 | 0.00 | 11 | 1012.7 |
| 20260509031524 | 89 | 246 | 6.0 | 8.0 | 0.00 | 0.00 | 0.00 | 12 | 1012.7 |
| 20260509031021 | 90 | 248 | 4.0 | 10.0 | 0.00 | 0.00 | 0.00 | 12 | 1012.7 |
| 20260509030519 | 90 | 262 | 3.0 | 8.0 | 0.00 | 0.00 | 0.00 | 12 | 1012.7 |
| 20260509030016 | 89 | 285 | 5.0 | 8.0 | 0.00 | 0.00 | 0.00 | 12 | 1012.6 |
| 20260509025512 | 91 | 246 | 4.0 | 6.0 | 0.00 | 0.00 | 0.00 | 12 | 1012.5 |
| 20260509025007 | 90 | 267 | 1.0 | 8.0 | 0.00 | 0.00 | 0.00 | 13 | 1012.4 |
| 20260509024503 | 91 | 243 | 4.0 | 6.0 | 0.00 | 0.00 | 0.00 | 12 | 1012.1 |
| 20260509024000 | 91 | 236 | 5.0 | 12.0 | 0.00 | 0.00 | 0.00 | 13 | 1012.3 |
| 20260509023458 | 91 | 256 | 6.0 | 8.0 | 0.00 | 0.00 | 0.00 | 13 | 1012.2 |
| 20260509022954 | 91 | 266 | 7.0 | 11.0 | 0.00 | 0.00 | 0.00 | 13 | 1012.1 |
| 20260509022451 | 91 | 257 | 4.0 | 6.0 | 0.00 | 0.00 | 0.00 | 13 | 1012.4 |
| 20260509021949 | 91 | 291 | 4.0 | 8.0 | 0.00 | 0.00 | 0.00 | 13 | 1012.3 |
| 20260509021445 | 91 | 243 | 9.0 | 11.0 | 0.00 | 0.00 | 0.00 | 12 | 1012.1 |
| 20260509020943 | 92 | 265 | 4.0 | 9.0 | 0.00 | 0.00 | 0.00 | 12 | 1012.1 |
| 20260509020441 | 92 | 243 | 10.0 | 11.0 | 0.00 | 0.00 | 0.00 | 13 | 1012.2 |
| 20260509015938 | 92 | 253 | 7.0 | 11.0 | 0.00 | 0.00 | 0.00 | 13 | 1012.2 |
| 20260509015437 | 93 | 288 | 2.0 | 5.0 | 0.00 | 0.00 | 0.00 | 12 | 1012.1 |
| 20260509014933 | 92 | 258 | 4.0 | 10.0 | 0.00 | 0.00 | 0.00 | 13 | 1012.1 |
| 20260509014429 | 93 | 304 | 7.0 | 10.0 | 0.00 | 0.00 | 0.00 | 12 | 1012.2 |
| 20260509013926 | 93 | 287 | 8.0 | 11.0 | 0.00 | 0.00 | 0.00 | 12 | 1012.0 |
| 20260509013423 | 93 | 298 | 6.0 | 8.0 | 0.00 | 0.00 | 0.00 | 12 | 1012.0 |
| 20260509012918 | 94 | 265 | 6.0 | 12.0 | 0.00 | 0.00 | 0.00 | 12 | 1011.7 |
| 20260509012415 | 95 | 306 | 10.0 | 11.0 | 0.00 | 0.00 | 0.00 | 11 | 1012.1 |
| 20260509011913 | 97 | 262 | 7.0 | 10.0 | 0.00 | 0.00 | 0.00 | 11 | 1012.0 |
| 20260509011410 | 97 | 308 | 5.0 | 10.0 | 0.00 | 0.00 | 0.00 | 11 | 1012.0 |
| 20260509010908 | 96 | 312 | 12.0 | 16.0 | 0.00 | 0.00 | 0.00 | 11 | 1012.0 |
| 20260509010405 | 97 | 337 | 3.0 | 10.0 | 0.00 | 0.00 | 0.00 | 12 | 1011.8 |
| 20260509005902 | 97 | 327 | 7.0 | 12.0 | 0.00 | 0.00 | 0.00 | 11 | 1011.7 |
| 20260509005400 | 97 | 306 | 10.0 | 15.0 | 0.00 | 0.00 | 0.00 | 10 | 1011.8 |
| 20260509004900 | 97 | 331 | 12.0 | 16.0 | 0.00 | 0.00 | 0.00 | 11 | 1012.0 |
| 20260509004356 | 97 | 296 | 9.0 | 17.0 | 0.00 | 0.00 | 0.00 | 11 | 1011.8 |
| 20260509003854 | 97 | 323 | 8.0 | 17.0 | 0.00 | 0.00 | 0.00 | 10 | 1012.0 |
| 20260509003351 | 98 | 294 | 6.0 | 14.0 | 0.00 | 0.00 | 0.00 | 11 | 1012.0 |
| 20260509002848 | 98 | 319 | 8.0 | 18.0 | 0.00 | 0.00 | 0.00 | 11 | 1012.0 |
| 20260509002346 | 98 | 329 | 5.0 | 13.0 | 0.00 | 0.00 | 0.00 | 10 | 1012.0 |
| 20260509001844 | 98 | 304 | 13.0 | 18.0 | 0.00 | 0.00 | 0.00 | 11 | 1012.0 |
| 20260509001339 | 98 | 316 | 12.0 | 15.0 | 0.00 | 0.00 | 0.00 | 11 | 1011.7 |
| 20260509000837 | 98 | 311 | 14.0 | 22.0 | 0.00 | 0.00 | 0.00 | 11 | 1012.0 |
| 20260509000335 | 98 | 314 | 11.0 | 16.0 | 0.00 | 0.00 | 0.00 | 11 | 1011.7 |
| 20260508235831 | 98 | 307 | 8.0 | 17.0 | 0.00 | 0.00 | 0.00 | 12 | 1011.8 |
| 20260508235328 | 99 | 329 | 10.0 | 16.0 | 0.00 | 0.00 | 0.00 | 12 | 1011.8 |
| 20260508234825 | 99 | 288 | 7.0 | 13.0 | 0.00 | 0.00 | 0.00 | 12 | 1012.1 |
| 20260508234321 | 98 | 252 | 10.0 | 15.0 | 0.00 | 0.00 | 0.00 | 12 | 1012.1 |
| 20260508233820 | 99 | 290 | 6.0 | 18.0 | 0.00 | 0.00 | 0.00 | 12 | 1011.8 |
| 20260508233319 | 100 | 278 | 9.0 | 13.0 | 0.00 | 0.00 | 0.00 | 12 | 1012.1 |
| 20260508232815 | 99 | 281 | 9.0 | 18.0 | 0.00 | 0.00 | 0.00 | 12 | 1012.2 |
| 20260508232311 | 99 | 293 | 5.0 | 13.0 | 0.00 | 0.00 | 0.00 | 11 | 1012.0 |
| 20260508231810 | 99 | 274 | 9.0 | 20.0 | 0.00 | 0.00 | 0.00 | 12 | 1011.8 |
| 20260508231306 | 99 | 267 | 7.0 | 20.0 | 0.00 | 0.00 | 0.00 | 12 | 1012.2 |
| 20260508230803 | 100 | 278 | 6.0 | 18.0 | 0.00 | 0.00 | 0.00 | 12 | 1012.0 |
| 20260508230259 | 101 | 280 | 6.0 | 19.0 | 0.00 | 0.00 | 0.00 | 12 | 1012.0 |
| 20260508225757 | 100 | 249 | 10.0 | 21.0 | 0.00 | 0.00 | 0.00 | 12 | 1012.3 |
| 20260508225253 | 102 | 263 | 9.0 | 16.0 | 0.00 | 0.00 | 0.00 | 11 | 1012.3 |
| 20260508224751 | 102 | 275 | 8.0 | 20.0 | 0.00 | 0.00 | 0.00 | 11 | 1012.4 |
| 20260508224248 | 101 | 263 | 14.0 | 23.0 | 0.00 | 0.00 | 0.00 | 10 | 1012.2 |
| 20260508223746 | 101 | 247 | 15.0 | 17.0 | 0.00 | 0.00 | 0.00 | 10 | 1012.4 |
| 20260508223243 | 101 | 250 | 19.0 | 24.0 | 0.00 | 0.00 | 0.00 | 11 | 1012.5 |
| 20260508222741 | 101 | 242 | 15.0 | 21.0 | 0.00 | 0.00 | 0.00 | 11 | 1012.6 |
| 20260508222238 | 102 | 288 | 5.0 | 20.0 | 0.00 | 0.00 | 0.00 | 10 | 1012.5 |
| 20260508221734 | 102 | 255 | 9.0 | 17.0 | 0.00 | 0.00 | 0.00 | 10 | 1012.5 |
| 20260508221230 | 102 | 243 | 18.0 | 21.0 | 0.00 | 0.00 | 0.00 | 11 | 1012.6 |
| 20260508220726 | 102 | 282 | 7.0 | 16.0 | 0.00 | 0.00 | 0.00 | 10 | 1012.5 |
| 20260508220223 | 101 | 249 | 15.0 | 21.0 | 0.00 | 0.00 | 0.00 | 10 | 1012.8 |
| 20260508215719 | 102 | 248 | 17.0 | 23.0 | 0.00 | 0.00 | 0.00 | 10 | 1012.8 |
| 20260508215216 | 102 | 245 | 17.0 | 19.0 | 0.00 | 0.00 | 0.00 | 10 | 1012.8 |
| 20260508214713 | 102 | 252 | 20.0 | 21.0 | 0.00 | 0.00 | 0.00 | 10 | 1012.8 |
| 20260508214211 | 104 | 246 | 9.0 | 14.0 | 0.00 | 0.00 | 0.00 | 10 | 1012.8 |
| 20260508213707 | 102 | 260 | 11.0 | 15.0 | 0.00 | 0.00 | 0.00 | 10 | 1012.9 |
| 20260508213203 | 102 | 254 | 9.0 | 15.0 | 0.00 | 0.00 | 0.00 | 10 | 1013.1 |
| 20260508212700 | 102 | 237 | 9.0 | 20.0 | 0.00 | 0.00 | 0.00 | 11 | 1013.0 |
| 20260508212156 | 103 | 240 | 15.0 | 16.0 | 0.00 | 0.00 | 0.00 | 10 | 1013.0 |
| 20260508211652 | 102 | 261 | 15.0 | 22.0 | 0.00 | 0.00 | 0.00 | 11 | 1013.2 |
| 20260508211148 | 103 | 239 | 12.0 | 17.0 | 0.00 | 0.00 | 0.00 | 11 | 1013.3 |
| 20260508210645 | 103 | 265 | 13.0 | 17.0 | 0.00 | 0.00 | 0.00 | 10 | 1013.5 |
| 20260508210143 | 102 | 234 | 12.0 | 15.0 | 0.00 | 0.00 | 0.00 | 11 | 1013.5 |
| 20260508205640 | 102 | 265 | 10.0 | 16.0 | 0.00 | 0.00 | 0.00 | 11 | 1013.3 |
| 20260508205136 | 103 | 256 | 11.0 | 13.0 | 0.00 | 0.00 | 0.00 | 11 | 1013.5 |
| 20260508204632 | 103 | 276 | 3.0 | 14.0 | 0.00 | 0.00 | 0.00 | 10 | 1013.4 |
| 20260508204128 | 104 | 324 | 7.0 | 11.0 | 0.00 | 0.00 | 0.00 | 10 | 1013.3 |
| 20260508203625 | 102 | 305 | 8.0 | 10.0 | 0.00 | 0.00 | 0.00 | 11 | 1013.6 |
| 20260508203121 | 102 | 333 | 9.0 | 12.0 | 0.00 | 0.00 | 0.00 | 11 | 1013.5 |
| 20260508202617 | 102 | 313 | 8.0 | 13.0 | 0.00 | 0.00 | 0.00 | 10 | 1013.5 |
| 20260508202115 | 102 | 217 | 5.0 | 14.0 | 0.00 | 0.00 | 0.00 | 11 | 1013.4 |
| 20260508201611 | 103 | 286 | 9.0 | 15.0 | 0.00 | 0.00 | 0.00 | 10 | 1013.6 |
| 20260508201108 | 102 | 316 | 6.0 | 14.0 | 0.00 | 0.00 | 0.00 | 11 | 1013.6 |
| 20260508200605 | 102 | 312 | 9.0 | 14.0 | 0.00 | 0.00 | 0.00 | 11 | 1013.7 |
| 20260508195557 | 102 | 296 | 11.0 | 17.0 | 0.00 | 0.00 | 0.00 | 11 | 1013.7 |
| 20260508195054 | 101 | 314 | 10.0 | 14.0 | 0.00 | 0.00 | 0.00 | 11 | 1013.7 |
| 20260508194551 | 101 | 289 | 6.0 | 16.0 | 0.00 | 0.00 | 0.00 | 12 | 1013.8 |
| 20260508194048 | 102 | 316 | 9.0 | 12.0 | 0.00 | 0.00 | 0.00 | 12 | 1013.9 |
| 20260508193544 | 103 | 246 | 9.0 | 12.0 | 0.00 | 0.00 | 0.00 | 11 | 1014.0 |
| 20260508193041 | 102 | 304 | 5.0 | 14.0 | 0.00 | 0.00 | 0.00 | 11 | 1013.9 |
| 20260508192538 | 101 | 261 | 8.0 | 16.0 | 0.00 | 0.00 | 0.00 | 11 | 1014.0 |
| 20260508192035 | 102 | 320 | 11.0 | 15.0 | 0.00 | 0.00 | 0.00 | 10 | 1014.0 |
| 20260508191532 | 102 | 338 | 3.0 | 6.0 | 0.00 | 0.00 | 0.00 | 11 | 1014.1 |
| 20260508191028 | 102 | 325 | 7.0 | 10.0 | 0.00 | 0.00 | 0.00 | 11 | 1014.1 |
| 20260508190526 | 101 | 356 | 2.0 | 11.0 | 0.00 | 0.00 | 0.00 | 11 | 1014.3 |
| 20260508190022 | 102 | 257 | 1.0 | 5.0 | 0.00 | 0.00 | 0.00 | 11 | 1014.3 |
| 20260508185519 | 104 | 228 | 1.0 | 3.0 | 0.00 | 0.00 | 0.00 | 12 | 1014.4 |
| 20260508185017 | 103 | 320 | 1.0 | 3.0 | 0.00 | 0.00 | 0.00 | 13 | 1014.3 |
| 20260508184514 | 102 | 44 | 0.0 | 2.0 | 0.00 | 0.00 | 0.00 | 12 | 1014.4 |
| 20260508184011 | 101 | 53 | 3.0 | 6.0 | 0.00 | 0.00 | 0.00 | 12 | 1014.5 |
| 20260508183507 | 101 | 93 | 3.0 | 6.0 | 0.00 | 0.00 | 0.00 | 13 | 1014.5 |
| 20260508183003 | 101 | 130 | 4.0 | 4.0 | 0.00 | 0.00 | 0.00 | 12 | 1014.3 |
| 20260508182500 | 101 | 119 | 5.0 | 6.0 | 0.00 | 0.00 | 0.00 | 12 | 1014.6 |
| 20260508181956 | 101 | 105 | 3.0 | 8.0 | 0.00 | 0.00 | 0.00 | 13 | 1014.5 |
| 20260508181452 | 100 | 174 | 3.0 | 4.0 | 0.00 | 0.00 | 0.00 | 13 | 1014.5 |
| 20260508180950 | 101 | 191 | 3.0 | 4.0 | 0.00 | 0.00 | 0.00 | 13 | 1014.6 |
| 20260508180446 | 100 | 109 | 4.0 | 6.0 | 0.00 | 0.00 | 0.00 | 13 | 1014.7 |
| 20260508175942 | 100 | 309 | 4.0 | 4.0 | 0.00 | 0.00 | 0.00 | 14 | 1014.8 |
| 20260508175439 | 100 | 161 | 1.0 | 7.0 | 0.00 | 0.00 | 0.00 | 13 | 1014.8 |
| 20260508174937 | 100 | 216 | 3.0 | 4.0 | 0.00 | 0.00 | 0.00 | 13 | 1014.8 |
| 20260508174434 | 99 | 180 | 2.0 | 5.0 | 0.00 | 0.00 | 0.00 | 13 | 1014.9 |
| 20260508173931 | 100 | 80 | 1.0 | 5.0 | 0.00 | 0.00 | 0.00 | 13 | 1014.9 |
| 20260508173428 | 99 | 160 | 1.0 | 5.0 | 0.00 | 0.00 | 0.00 | 13 | 1014.8 |
| 20260508172923 | 99 | 108 | 2.0 | 5.0 | 0.00 | 0.00 | 0.00 | 13 | 1014.7 |
| 20260508172422 | 98 | 107 | 2.0 | 6.0 | 0.00 | 0.00 | 0.00 | 14 | 1014.8 |
| 20260508171917 | 98 | 182 | 2.0 | 6.0 | 0.00 | 0.00 | 0.00 | 14 | 1014.7 |
| 20260508171414 | 98 | 145 | 2.0 | 5.0 | 0.00 | 0.00 | 0.00 | 14 | 1014.9 |
| 20260508170910 | 98 | 102 | 3.0 | 5.0 | 0.00 | 0.00 | 0.00 | 15 | 1015.0 |
| 20260508170408 | 99 | 114 | 4.0 | 4.0 | 0.00 | 0.00 | 0.00 | 14 | 1014.9 |
| 20260508165904 | 98 | 208 | 2.0 | 4.0 | 0.00 | 0.00 | 0.00 | 15 | 1014.9 |
| 20260508165403 | 97 | 239 | 3.0 | 3.0 | 0.00 | 0.00 | 0.00 | 15 | 1014.9 |
| 20260508164858 | 96 | 170 | 3.0 | 5.0 | 0.00 | 0.00 | 0.00 | 16 | 1015.1 |
| 20260508164355 | 96 | 135 | 2.0 | 4.0 | 0.00 | 0.00 | 0.00 | 16 | 1015.2 |
| 20260508163853 | 96 | 111 | 0.0 | 5.0 | 0.00 | 0.00 | 0.00 | 16 | 1015.1 |
| 20260508163350 | 95 | 188 | 3.0 | 4.0 | 0.00 | 0.00 | 0.00 | 17 | 1015.2 |
| 20260508162845 | 95 | 111 | 1.0 | 4.0 | 0.00 | 0.00 | 0.00 | 17 | 1015.1 |
| 20260508162342 | 95 | 177 | 0.0 | 3.0 | 0.00 | 0.00 | 0.00 | 17 | 1015.1 |
| 20260508161839 | 93 | 171 | 2.0 | 2.0 | 0.00 | 0.00 | 0.00 | 17 | 1015.0 |
| 20260508161337 | 94 | 100 | 2.0 | 3.0 | 0.00 | 0.00 | 0.00 | 17 | 1015.1 |
| 20260508160834 | 93 | 169 | 2.0 | 4.0 | 0.00 | 0.00 | 0.00 | 18 | 1015.1 |
| 20260508160333 | 92 | 197 | 2.0 | 3.0 | 0.00 | 0.00 | 0.00 | 19 | 1015.2 |
| 20260508155828 | 92 | 105 | 2.0 | 2.0 | 0.00 | 0.00 | 0.00 | 19 | 1015.2 |
| 20260508155326 | 92 | 78 | 2.0 | 4.0 | 0.00 | 0.00 | 0.00 | 19 | 1015.1 |
| 20260508154822 | 92 | 70 | 2.0 | 3.0 | 0.00 | 0.00 | 0.00 | 19 | 1015.2 |
| 20260508154320 | 91 | 63 | 1.0 | 3.0 | 0.00 | 0.00 | 0.00 | 20 | 1015.0 |
| 20260508153816 | 90 | 47 | 1.0 | 4.0 | 0.00 | 0.00 | 0.00 | 20 | 1015.1 |
| 20260508153314 | 90 | 110 | 5.0 | 5.0 | 0.00 | 0.00 | 0.00 | 20 | 1015.2 |
| 20260508152810 | 89 | 93 | 2.0 | 3.0 | 0.00 | 0.00 | 0.00 | 20 | 1015.3 |
| 20260508152306 | 90 | 89 | 3.0 | 4.0 | 0.00 | 0.00 | 0.00 | 20 | 1015.2 |
| 20260508151802 | 89 | 198 | 0.0 | 6.0 | 0.00 | 0.00 | 0.00 | 21 | 1015.2 |
| 20260508151300 | 90 | 357 | 1.0 | 2.0 | 0.00 | 0.00 | 0.00 | 20 | 1015.2 |
| 20260508150756 | 90 | 101 | 2.0 | 3.0 | 0.00 | 0.00 | 0.00 | 20 | 1015.1 |
| 20260508150253 | 89 | 17 | 0.0 | 2.0 | 0.00 | 0.00 | 0.00 | 21 | 1015.2 |
| 20260508145749 | 88 | 83 | 0.0 | 2.0 | 0.00 | 0.00 | 0.00 | 21 | 1015.1 |
| 20260508145245 | 87 | 93 | 5.0 | 5.0 | 0.00 | 0.00 | 0.00 | 22 | 1015.0 |
| 20260508144742 | 87 | 294 | 2.0 | 2.0 | 0.00 | 0.00 | 0.00 | 22 | 1015.1 |
| 20260508144240 | 86 | 164 | 0.0 | 2.0 | 0.00 | 0.00 | 0.00 | 23 | 1015.1 |
| 20260508143737 | 86 | 231 | 0.0 | 2.0 | 0.00 | 0.00 | 0.00 | 23 | 1015.0 |
| 20260508143234 | 84 | 276 | 0.0 | 4.0 | 0.00 | 0.00 | 0.00 | 24 | 1015.1 |
| 20260508142730 | 86 | 89 | 0.0 | 2.0 | 0.00 | 0.00 | 0.00 | 23 | 1015.0 |
| 20260508142228 | 84 | 214 | 1.0 | 2.0 | 0.00 | 0.00 | 0.00 | 24 | 1015.0 |
| 20260508141724 | 84 | 24 | 1.0 | 1.0 | 0.00 | 0.00 | 0.00 | 24 | 1015.1 |
| 20260508141222 | 82 | 308 | 1.0 | 2.0 | 0.00 | 0.00 | 0.00 | 25 | 1015.0 |
| 20260508140719 | 80 | 106 | 0.0 | 2.0 | 0.00 | 0.00 | 0.00 | 26 | 1014.7 |
| 20260508140215 | 80 | 262 | 2.0 | 2.0 | 0.00 | 0.00 | 0.00 | 27 | 1015.0 |
| 20260508135712 | 78 | 12 | 0.0 | 3.0 | 0.00 | 0.00 | 0.00 | 28 | 1015.0 |
| 20260508135207 | 80 | 4 | 0.0 | 2.0 | 0.00 | 0.00 | 0.00 | 27 | 1014.7 |
| 20260508134703 | 79 | 111 | 1.0 | 2.0 | 0.00 | 0.00 | 0.00 | 28 | 1014.5 |
| 20260508134201 | 78 | 276 | 0.0 | 2.0 | 0.00 | 0.00 | 0.00 | 27 | 1014.6 |
| 20260508133658 | 75 | 190 | 2.0 | 2.0 | 0.00 | 0.00 | 0.00 | 29 | 1014.6 |
| 20260508133155 | 75 | 66 | 0.0 | 2.0 | 0.00 | 0.00 | 0.00 | 28 | 1014.5 |
| 20260508132653 | 74 | 218 | 0.0 | 2.0 | 0.00 | 0.00 | 0.00 | 30 | 1014.5 |
| 20260508132149 | 71 | 200 | 2.0 | 2.0 | 0.00 | 0.00 | 0.00 | 31 | 1014.4 |
| 20260508131645 | 71 | 221 | 2.0 | 2.0 | 0.00 | 0.00 | 0.00 | 31 | 1014.4 |
| 20260508131142 | 72 | 215 | 0.0 | 3.0 | 0.00 | 0.00 | 0.00 | 31 | 1014.4 |
| 20260508130638 | 72 | 109 | 1.0 | 2.0 | 0.00 | 0.00 | 0.00 | 31 | 1014.2 |
| 20260508130136 | 73 | 113 | 0.0 | 2.0 | 0.00 | 0.00 | 0.00 | 30 | 1014.2 |
| 20260508125631 | 72 | 204 | 0.0 | 3.0 | 0.00 | 0.00 | 0.00 | 30 | 1014.2 |
| 20260508125128 | 72 | 81 | 1.0 | 2.0 | 0.00 | 0.00 | 0.00 | 31 | 1014.1 |
| 20260508124626 | 73 | 148 | 1.0 | 2.0 | 0.00 | 0.00 | 0.00 | 30 | 1014.2 |
| 20260508124123 | 73 | 118 | 2.0 | 3.0 | 0.00 | 0.00 | 0.00 | 30 | 1013.9 |
| 20260508123621 | 74 | 79 | 1.0 | 2.0 | 0.00 | 0.00 | 0.00 | 30 | 1013.9 |
| 20260508123118 | 75 | 234 | 1.0 | 2.0 | 0.00 | 0.00 | 0.00 | 30 | 1013.9 |